Tracking 30995 objects as of 7-Jul-2025
HD Live streaming from Space Station
objects crossing your sky now

COSMOS 374 DEB *

Track COSMOS 374 DEB * now!
10-day predictions


NORAD ID: 5028
Int'l Code: 1970-089Z
Perigee: 733.5 km
Apogee: 1,700.2 km
Inclination: 63.3 °
Period: 109.6 minutes
Semi major axis: 7587 km
RCS: 0.0422 m2 (small)
Launch date: October 23, 1970
Source: Commonwealth of Independent States (former USSR) (CIS)
Launch site: TYURATAM MISSILE AND SPACE COMPLEX (TTMTR)

Note: This is SATELLITE DEBRIS
Your satellite tracking list
COSMOS 1163
Track 1 satellite(s)




NASA's NSSDC Master Catalog

Two Line Element Set (TLE):
1 05028U 70089Z   25187.61313591  .00000272  00000-0  34748-3 0  9991
2 05028  63.3125  17.9809 0636987 285.7508  67.4166 13.13474785561257
Source of the keplerian elements: AFSPC